Flag for China Weather past 2 weeks in Guilin, Guangxi, China

Now
81 °F

Partly sunny.


Feels Like: 87 °F
Forecast: 74 / 87 °F
Wind: 3 mph from East

Location: Guilin Airport

Current Time: May 30, 2015 at 10:51:31 AM

Latest Report: May 30, 2015 at 10:00 AM


Visibility: N/A

Pressure: 29.80 "Hg

Humidity: 89%

Dew point: 77 °F

Location of GuilinLocation

Historic Weather in Guilin — Graph

°F

Guilin temperature yesterday

Maximum temperature yesterday: 93 °F (at 5:00 PM)
Minimum temperature yesterday: 79 °F (at 2:00 AM)
Average temperature yesterday: 85 °F

Past Weeks' High & Low Weather Summary

 TemperatureHumidityPressure
High93 °F (May 29, 5:00 PM)100% (May 15, 4:00 PM)29.86 "Hg (May 15, 4:00 PM)
Low68 °F (May 23, 11:00 PM)55% (May 21, 2:00 PM)29.53 "Hg (May 28, 3:00 PM)
Average77 °F87%29.71 "Hg
* Reported May 15 9:00 AM — May 30 9:00 AM, Guilin, Weather by CustomWeather, © 2015

Note: Actual official high and low records may vary slightly from our data, if they occured in-between our weather recording intervals... More about our weather records

Advertising

Guilin weather history for previous 24 hours

 ConditionsComfort  
Time TempWeatherWind HumidityBarometerVisibility
9:00 AM
Sat, May 30
75 °FPartly sunny.3 mph100%29.77 "HgN/A
8:00 AM75 °FThunderstorms. Partly sunny.8 mph94%29.74 "Hg4 mi
7:00 AM77 °FMore clouds than sun.1 mph89%29.71 "HgN/A
6:00 AM77 °FMore clouds than sun.No wind83%29.71 "HgN/A
5:00 AM77 °FPassing clouds.1 mph83%29.71 "HgN/A
4:00 AM77 °FPassing clouds.No wind83%29.71 "HgN/A
3:00 AM77 °FPassing clouds.3 mph83%29.68 "HgN/A
2:00 AM79 °FPassing clouds.8 mph79%29.68 "HgN/A
1:00 AM81 °FThunderstorms. Passing clouds.3 mph70%29.68 "HgN/A
12:00 AM82 °FThunderstorms. Passing clouds.3 mph84%29.71 "HgN/A
11:00 PM
Fri, May 29
82 °FPassing clouds.1 mph89%29.68 "HgN/A
10:00 PM82 °FPassing clouds.No wind94%29.68 "HgN/A
9:00 PM84 °FClear.3 mph89%29.65 "Hg10 mi
8:00 PM86 °FClear.3 mph79%29.62 "Hg10 mi
7:00 PM90 °FSunny.1 mph71%29.62 "Hg10 mi
6:00 PM91 °FPassing clouds.8 mph63%29.56 "HgN/A
5:00 PM93 °FPassing clouds.6 mph59%29.59 "HgN/A
4:00 PM91 °FPassing clouds.3 mph63%29.59 "HgN/A
3:00 PM91 °FScattered clouds.8 mph63%29.59 "HgN/A
2:00 PM90 °FPartly sunny.3 mph63%29.62 "HgN/A
1:00 PM90 °FBroken clouds.1 mph67%29.65 "HgN/A
12:00 PM88 °FBroken clouds.8 mph70%29.65 "HgN/A
11:00 AM88 °FPartly sunny.10 mph70%29.65 "HgN/A
10:00 AM84 °FBroken clouds.3 mph74%29.65 "HgN/A
Weather by CustomWeather, © 2015

See weather overviewHow to use our weather pages